Regional Weather Roundup
Issued by NWS Cleveland, OH

Home | Current Version | Previous Version | Graphics & Text | Print | Product List | Glossary On
Versions: 1 2 3 4 5 6 7 8 9 10 11 12 13 14 15 16 17 18 19 20 21 22 23 24 25 26 27 28 29 30 31 32 33 34 35 36 37 38 39 40 41 42 43 44 45 46 47 48 49 50
000
ASUS41 KCLE 060810
RWRCLE
OHIO REGIONAL WEATHER ROUNDUP
NATIONAL WEATHER SERVICE CLEVELAND, OH
300 AM EST TUE DEC 06 2016

NOTE: "FAIR" INDICATES FEW OR NO CLOUDS BELOW 12,000 FEET WITH NO
SIGNIFICANT WEATHER AND/OR OBSTRUCTIONS TO VISIBILITY.

OHZ001>008-015>018-024>027-034-035-043-044-060900-
   NORTHWEST OHIO

CITY           SKY/WX    TMP DP  RH WIND       PRES   REMARKS
DEFIANCE       CLEAR     30  26  85 NE7       29.95F WCI  23
FINDLAY        CLOUDY    31  25  78 E12       29.91F WCI  22
TOLEDO EXPRESS CLOUDY    31  29  92 E10       29.97F WCI  22
TOLEDO EXEC    CLOUDY    33  29  85 E7        29.99F WCI  27
LIMA           CLOUDY    30  27  88 E8        29.89F WCI  22
$$

OHZ009>014-019>023-028>033-038-089-060900-
   NORTHEAST OHIO

CITY           SKY/WX    TMP DP  RH WIND       PRES   REMARKS
CLE-HOPKINS    CLOUDY    32  26  78 E8        30.02F WCI  25
CLE-LAKEFRONT  CLEAR     34  28  79 NE9       30.01F WCI  27
CUY CO. ARPT   NOT AVBL
LORAIN-ELYRIA  CLOUDY    28  23  81 E6        30.00F WCI  22
ASHTABULA      CLEAR     29  27  92 E5        30.06S WCI  24
AKRON-CANTON   PTCLDY    32  25  75 E8        29.99S WCI  25
WOOSTER        CLOUDY    31  26  82 E9        29.98F WCI  23
MANSFIELD      CLOUDY    31  27  85 E16       29.94F WCI  20
YOUNGSTOWN     MOCLDY    29  26  89 E9        30.02S WCI  20
$$

OHZ042-051>053-060>062-070>072-077>081-060900-
  SOUTHWEST OHIO

CITY           SKY/WX    TMP DP  RH WIND       PRES   REMARKS
CINC-COVINGTON CLOUDY    40  33  76 E10       29.82R
CINC-LUNKEN    PTCLDY    40  34  79 NE7       29.85F
HAMILTON       CLOUDY    38  31  76 NE3       29.86S
DAYTON         CLOUDY    35  30  82 E10       29.86F WCI  27
WRIGHT-PAT AFB CLOUDY    37  32  84 E8        29.86F
DAYTON GENERAL MOCLDY    37  30  75 E10       29.84F
WILMINGTON     PTCLDY    35  31  85 E9        29.83F WCI  28
$$

OHZ036-037-039>041-045>050-054>059-063>069-073>076-082>088-060900-
  CENTRAL AND SOUTHEAST OHIO

CITY           SKY/WX    TMP DP  RH WIND       PRES   REMARKS
COLUMBUS       MOCLDY    36  31  82 NE8       29.87F
OSU AIRPORT    CLOUDY    33  30  88 NE6       29.88F WCI  28
BOLTON FIELD   PTCLDY    35  31  83 E6        29.89F
RICKENBACK AFB PTCLDY    35  31  85 E10       29.88F WCI  27
NEWARK         CLOUDY    34  28  79 NE8       29.89F WCI  27
MARION         PTCLDY    32  28  85 E6        29.91F WCI  26
LANCASTER      CLOUDY    35  30  82 E6        29.88F
ZANESVILLE     CLOUDY    36  28  73 E8        29.92F
NEW PHILLY     CLOUDY    34  28  79 E7        29.99  WCI  28
$$



USA.gov is the U.S. government's official web portal to all federal, state and local government web resources and services.